CAPE
571 660 849 870 820 751 745 794 761 669 580 411 431 554 696 956 1133 1268 1393 1476 1509 1508 1401 1196 1156 1122 1014 909 851 908 849 797 879 1065 1276 1273 1288 1206 1077 952 870 841 782
390 734 757 871 919 844 804 846 894 817 770 597 578 606 689 958 1101 1340 1485 1585 1659 1609 1461 1285 1278 1291 1204 1006 907 954 864 958 1062 1134 1232 1278 1271 1166 1024 896 845 824 788
398 733 786 753 799 903 923 923 976 970 940 784 717 710 753 848 1064 1245 1361 1499 1595 1569 1525 1437 1372 1097 1025 925 849 896 998 1029 983 1054 1038 915 1205 1168 1013 922 879 800 787
283 615 742 716 760 757 874 962 1031 1087 1047 936 839 868 912 937 971 1141 1368 1553 1502 1512 1575 1498 1376 1080 939 890 860 924 974 885 885 805 735 980 1126 1124 1047 934 858 826 693
308 632 695 746 742 674 692 887 1057 1181 1121 1045 957 990 1030 1102 1037 1045 1272 1591 1316 1354 1518 1661 1516 1054 876 862 873 909 926 969 699 540 506 736 835 1135 974 902 873 733 667
226 497 641 716 629 647 712 872 1080 1181 1178 1132 1094 1102 1140 1218 1218 1102 1143 1514 1398 1302 1469 1713 1385 880 776 772 842 858 871 667 515 461 493 560 641 1012 949 849 729 585 409
97 320 556 626 598 708 866 992 1140 1240 1286 1242 1245 1194 1176 1192 1260 1175 1158 1462 1507 1387 1421 1421 1067 795 760 744 762 636 652 525 297 337 390 407 576 980 896 700 546 390 318
7 249 578 678 713 772 882 1071 1156 1014 1295 1338 1345 1278 1182 1192 1261 1277 1180 1424 1462 1335 1379 1281 899 689 717 683 725 536 489 355 169 277 221 235 492 849 759 635 464 265 123
26 139 410 698 818 805 849 1012 1059 1176 1349 1355 1391 1367 1218 1153 1222 1261 1232 1345 1338 1187 1238 1156 801 666 732 668 685 358 349 170 121 114 193 150 439 707 774 646 278 142 41
60 106 179 448 794 929 1060 1017 1077 1188 1282 1340 1370 1470 1326 1161 1128 1196 1204 1276 1193 1026 995 895 739 596 666 660 672 424 254 147 30 0 37 163 329 499 662 500 331 109 8
110 38 145 265 461 664 875 1108 1127 1182 1229 1342 1437 1503 1495 1326 1228 1242 1232 1249 1115 990 853 809 656 377 596 690 657 243 138 56 83 107 31 201 365 662 616 409 185 28 0
678 138 66 164 273 447 735 1031 1042 1210 1243 1093 1366 1107 1312 1412 1207 1222 1191 1215 1055 951 791 713 459 306 597 594 350 181 97 50 126 23 1 144 353 590 534 305 116 11 1
921 752 253 201 300 341 452 521 667 940 980 946 1250 895 1111 1483 1288 1171 1024 1044 914 936 756 661 423 288 466 430 59 55 65 88 114 36 22 202 279 636 495 223 99 15 4
1221 1042 836 323 289 394 449 301 378 458 569 709 1085 1114 950 1253 1202 1044 909 861 790 696 599 511 275 172 240 192 91 0 17 52 66 40 93 158 213 387 444 228 108 43 7
1045 1248 1010 692 250 353 523 318 301 333 382 459 688 1038 1069 951 1060 1004 881 735 657 462 452 359 197 58 37 101 85 9 0 18 41 8 34 96 109 287 375 231 189 124 34
1107 1104 1362 1147 782 434 443 596 475 483 383 398 457 715 979 950 901 942 946 811 687 443 323 263 148 48 53 102 129 65 30 27 26 8 0 5 79 104 163 170 144 158 74
1109 1157 1350 1446 1420 1202 919 1173 989 1014 881 637 665 770 913 1219 1204 1015 890 847 805 632 395 275 168 91 127 103 122 84 60 23 10 0 1 20 69 87 75 94 135 135 68
1044 1154 1168 1592 1546 1529 1406 1202 1145 1219 1249 1228 1134 983 1012 1079 1410 1305 1062 909 786 685 547 469 379 243 208 203 97 82 24 0 0 4 0 1 6 43 61 50 77 88 35
0 502 913 1318 1517 1597 1526 1322 1128 1300 1445 1399 1333 1196 1247 1138 1125 1326 1243 994 860 730 620 546 422 347 239 172 90 43 8 1 0 5 6 4 0 26 26 51 75 58 30
0 0 141 831 1404 1634 1611 1397 1264 1378 1401 1344 1460 1525 1391 1355 1230 1286 1225 1114 852 706 563 502 459 194 304 206 61 39 4 2 4 8 13 11 11 5 3 26 33 46 29
0 0 0 246 1023 1570 1681 1596 1264 1429 1549 1612 1537 1552 1422 1469 1473 1420 1327 1163 920 752 571 391 317 314 192 113 29 17 7 6 2 1 12 7 11 2 1 4 12 25 11
0 0 0 239 1106 1520 1684 1793 1572 1177 1267 1491 1609 1548 1392 1298 1398 1460 1382 1224 1055 762 553 456 408 178 63 58 51 7 20 2 7 5 1 3 11 4 2 9 21 3 0
0 0 80 694 1380 1647 1716 1707 1425 1135 935 1117 1189 1352 1368 1326 1187 1219 1120 857 824 681 604 564 336 163 26 7 8 4 2 4 5 4 1 4 6 2 4 22 11 3 8
0 0 519 1262 1368 1319 1456 1501 1330 1199 944 1234 1325 1142 1097 1136 1100 1042 928 775 696 648 591 390 147 75 15 2 19 5 0 0 3 1 1 2 1 0 0 9 7 2 8
0 0 0 0 0 0 0 30 1149 1663 1323 855 981 1066 1048 912 999 1035 909 722 491 360 330 263 104 26 8 0 3 2 3 0 0 0 1 2 1 1 1 1 10 1 0
0 0 0 0 0 0 0 0 0 29 344 856 1024 976 843 820 906 830 793 604 421 321 150 112 53 8 0 1 1 5 0 3 0 0 0 1 1 1 1 6 3 0 0
CIN
-478 -486 -430 -380 -354 -335 -308 -291 -259 -238 -220 -220 -194 -179 -160 -132 -114 -88 -63 -44 -35 -25 -27 -38 -33 -33 -41 -40 -34 -27 -24 -25 -14 -9 -0 -1 -0 -0 -0 -2 -2 -0 -0
-530 -508 -471 -399 -353 -331 -306 -274 -235 -207 -184 -186 -171 -164 -156 -133 -116 -82 -52 -34 -18 -18 -27 -33 -30 -19 -24 -38 -36 -22 -23 -24 -19 -9 -1 -0 -0 -0 -0 -2 -0 -0 -0
-524 -526 -484 -456 -392 -323 -302 -268 -222 -185 -147 -156 -148 -147 -138 -134 -109 -87 -63 -47 -33 -28 -31 -31 -31 -41 -44 -42 -35 -34 -29 -24 -26 -19 -16 -33 -0 -0 -0 -0 -0 -0 -0
-592 -564 -505 -470 -419 -373 -309 -260 -202 -150 -126 -131 -132 -123 -115 -110 -102 -82 -57 -38 -34 -27 -19 -30 -34 -50 -55 -44 -37 -35 -33 -33 -29 -30 -42 -22 -0 -1 -0 -0 -0 -0 -2
-599 -539 -499 -470 -443 -406 -360 -267 -191 -129 -122 -124 -128 -111 -102 -92 -93 -83 -54 -29 -33 -26 -23 -7 -10 -38 -47 -41 -40 -33 -21 -14 -29 -44 -53 -46 -26 -0 -0 -0 -0 -0 -2
-598 -550 -525 -481 -465 -422 -361 -279 -186 -136 -124 -119 -118 -107 -96 -85 -76 -80 -64 -29 -31 -32 -10 -10 -29 -53 -48 -45 -32 -26 -14 -32 -42 -44 -37 -26 -27 -0 -0 -0 -0 -5 -11
-650 -605 -546 -497 -447 -411 -343 -265 -196 -139 -118 -118 -115 -111 -107 -90 -81 -76 -67 -33 -30 -27 -13 -17 -37 -49 -41 -41 -33 -28 -20 -27 -43 -39 -31 -33 -22 -6 -0 -1 -5 -10 -12
-340 -630 -532 -469 -430 -404 -340 -253 -197 -184 -128 -113 -110 -112 -117 -99 -90 -68 -65 -37 -29 -32 -18 -28 -50 -61 -47 -40 -31 -27 -27 -35 -53 -38 -29 -23 -5 -0 -3 -3 -12 -22 -35
-691 -631 -566 -468 -410 -389 -346 -274 -226 -173 -134 -119 -107 -104 -116 -110 -90 -71 -59 -38 -30 -29 -28 -37 -60 -74 -47 -42 -32 -27 -31 -46 -49 -55 -28 -47 -6 -0 -0 -2 -10 -18 -37
-661 -612 -580 -509 -420 -375 -326 -288 -244 -189 -153 -131 -124 -100 -101 -111 -104 -84 -58 -34 -29 -40 -39 -46 -61 -74 -55 -49 -31 -33 -34 -55 -102 -0 -110 -63 -27 -4 -0 -1 -1 -14 -75
-543 -591 -560 -518 -484 -426 -360 -287 -252 -207 -172 -143 -121 -105 -97 -91 -90 -81 -69 -39 -30 -29 -47 -55 -63 -85 -67 -56 -39 -64 -54 -70 -89 -76 -116 -72 -20 -0 -0 -0 -2 -26 -0
-323 -481 -529 -526 -503 -457 -370 -301 -282 -217 -187 -193 -143 -161 -122 -91 -92 -67 -66 -44 -36 -31 -47 -59 -79 -92 -69 -67 -63 -69 -60 -58 -80 -118 -88 -75 -11 -0 -0 -3 -8 -37 -0
-254 -330 -471 -493 -484 -476 -419 -400 -359 -289 -250 -225 -174 -200 -159 -79 -86 -67 -68 -59 -56 -37 -49 -57 -98 -112 -81 -80 -100 -94 -74 -58 -63 -103 -117 -53 -7 -0 -0 -8 -14 -36 -0
-241 -244 -303 -424 -434 -435 -415 -441 -417 -389 -351 -283 -215 -185 -185 -121 -107 -102 -87 -81 -80 -81 -81 -82 -113 -114 -102 -98 -88 -0 -81 -71 -58 -73 -51 -36 -23 -3 -0 -3 -11 -13 -0
-184 -226 -255 -334 -398 -401 -383 -428 -428 -419 -395 -355 -283 -217 -189 -182 -150 -135 -120 -116 -106 -119 -107 -112 -120 -146 -127 -108 -80 -97 -0 -75 -61 -64 -50 -32 -23 -10 -4 -16 -0 -1 -39
-155 -152 -220 -274 -318 -342 -379 -360 -379 -388 -408 -382 -352 -283 -213 -197 -185 -164 -136 -130 -124 -136 -132 -120 -129 -146 -136 -90 -60 -70 -100 -84 -71 -33 -0 -80 -34 -20 -13 -2 -0 -0 -16
-137 -139 -176 -214 -282 -293 -342 -324 -322 -328 -331 -358 -339 -291 -240 -167 -138 -147 -146 -145 -133 -119 -139 -122 -125 -131 -120 -96 -64 -51 -73 -91 -83 -4 -58 -82 -31 -22 -13 -1 -3 -1 -10
-89 -112 -167 -208 -249 -252 -259 -295 -300 -298 -275 -277 -274 -264 -236 -203 -118 -105 -115 -134 -126 -123 -126 -107 -88 -82 -86 -80 -74 -53 -65 -1 -0 -76 -0 -63 -60 -25 -17 -5 -7 -4 -42
-0 -111 -139 -178 -202 -225 -230 -248 -258 -272 -245 -246 -244 -233 -200 -185 -160 -108 -96 -114 -105 -114 -121 -109 -97 -71 -67 -82 -72 -63 -31 -0 -0 -64 -42 -56 -0 -21 -16 -6 -7 -24 -98
-0 -0 -178 -162 -168 -216 -229 -231 -217 -213 -211 -207 -209 -192 -180 -153 -141 -111 -102 -84 -94 -111 -132 -120 -97 -115 -49 -44 -53 -48 -32 -35 -34 -38 -43 -21 -35 -33 -32 -19 -11 -75 -125
-0 -0 -0 -174 -157 -207 -217 -191 -169 -125 -134 -142 -159 -159 -154 -139 -97 -90 -75 -70 -80 -81 -128 -134 -115 -76 -66 -40 -57 -55 -12 -15 -19 -5 -25 -18 -13 -32 -20 -51 -47 -94 -132
-0 -0 -0 -185 -203 -225 -231 -199 -158 -149 -101 -104 -118 -126 -111 -120 -88 -60 -56 -51 -64 -79 -105 -107 -93 -103 -93 -59 -16 -15 -3 -1 -0 -12 -2 -12 -8 -25 -23 -45 -75 -41 -0
-0 -0 -241 -207 -212 -220 -205 -183 -163 -129 -129 -101 -98 -104 -139 -108 -95 -51 -47 -67 -76 -86 -94 -91 -115 -121 -74 -45 -17 -16 -15 -1 -4 -11 -2 -10 -4 -23 -30 -50 -73 -23 -29
-0 -41 -232 -224 -193 -155 -129 -102 -53 -23 -46 -75 -91 -95 -126 -127 -103 -69 -52 -61 -64 -91 -92 -129 -171 -174 -153 -15 -4 -14 -0 -3 -11 -0 -1 -16 -5 -0 -0 -78 -89 -19 -34
-0 -0 -0 -0 -0 -0 -0 -69 -58 -25 -44 -88 -104 -92 -95 -89 -68 -73 -62 -88 -108 -158 -153 -158 -206 -269 -205 -7 -18 -18 -5 -0 -0 -0 -20 -20 -1 -4 -15 -72 -106 -25 -0
-0 -0 -0 -0 -0 -0 -0 -0 -0 -135 -152 -58 -58 -72 -90 -75 -67 -77 -67 -98 -145 -160 -207 -202 -271 -240 -8 -25 -22 -12 -10 -9 -0 -0 -0 -5 -0 -0 -12 -29 -35 -0 -0
Wind_Speed
13 13 14 13 12 12 12 12 12 12 12 13 13 14 15 16 17 17 17 16 16 15 15 15 14 13 12 11 11 11 11 10 11 11 11 11 11 11 11 11 12 13 14
17 14 13 13 12 12 12 12 12 12 12 13 13 14 15 16 17 17 17 16 16 15 15 14 14 14 13 12 11 10 10 9 9 10 10 9 9 10 10 10 11 12 13
14 13 12 12 12 11 11 11 11 11 12 12 13 14 14 15 16 16 16 16 15 15 15 14 14 14 13 13 12 11 10 9 8 8 8 8 8 9 10 10 11 12 13
12 12 11 11 11 11 10 10 11 11 12 13 14 14 14 15 15 15 15 15 15 15 15 14 14 14 14 14 13 12 11 10 9 8 8 8 8 9 9 10 10 11 12
9 9 9 11 11 11 11 11 11 12 13 14 14 15 15 14 14 14 14 14 14 13 13 14 14 13 13 13 13 13 13 12 9 8 8 7 7 8 9 10 10 10 10
8 7 9 10 11 12 12 11 12 13 14 15 15 15 15 15 14 13 13 12 12 12 12 12 13 12 12 12 11 11 12 12 10 9 8 7 6 6 7 8 8 9 10
5 5 8 9 10 12 12 12 13 14 14 15 15 15 15 14 14 13 12 12 11 11 11 11 12 12 11 11 10 10 10 11 10 9 8 7 6 7 6 6 7 8 9
7 5 6 7 9 11 12 13 14 14 15 15 15 14 14 14 13 13 12 11 10 10 10 10 10 10 10 9 9 9 9 9 10 9 7 8 5 5 5 4 5 5 6
6 6 4 5 6 9 11 12 13 13 14 14 14 14 13 13 12 12 11 11 10 9 9 9 8 9 9 8 8 8 8 8 9 9 7 7 5 3 2 3 3 4 5
5 5 5 4 4 6 8 11 12 12 13 13 13 13 12 12 11 11 11 10 10 9 8 7 6 7 7 7 7 8 8 8 7 7 6 6 4 4 2 3 3 3 4
2 4 4 3 3 5 6 8 10 11 11 11 10 10 10 9 9 10 10 10 9 8 7 6 6 5 6 6 6 7 7 7 7 6 6 4 3 1 1 3 2 2 3
6 6 5 5 4 4 3 5 6 8 8 8 8 8 7 8 7 7 8 9 9 8 7 6 5 4 4 5 6 7 8 6 4 5 6 4 3 6 3 1 1 2 2
9 8 7 6 6 5 3 3 3 3 4 5 6 6 6 6 6 5 6 6 7 7 6 5 4 4 3 3 4 5 7 6 3 3 4 5 3 3 3 1 2 2 2
11 11 10 9 9 8 5 4 4 3 2 3 4 5 5 5 4 5 6 6 6 6 5 5 3 3 2 2 2 3 3 5 3 3 2 5 2 2 1 3 3 3 2
12 11 12 12 12 11 9 7 6 5 4 4 3 3 4 4 3 4 5 5 5 5 4 4 3 4 2 1 2 3 2 3 1 1 1 1 2 2 2 5 5 5 5
12 12 12 13 13 14 13 11 9 7 6 5 4 4 4 3 2 2 4 4 4 5 4 3 4 5 4 2 1 2 2 2 2 2 3 3 5 5 7 9 7 6 7
14 13 13 14 13 13 12 11 10 8 7 6 5 5 5 4 3 3 2 3 4 4 3 1 1 2 2 1 1 1 3 2 3 4 8 8 10 9 13 10 10 7 7
16 16 16 15 15 15 13 12 10 9 8 7 7 6 6 5 5 4 4 3 2 2 1 1 1 2 3 2 1 2 5 2 3 5 10 9 11 12 17 10 7 6 8
16 17 16 17 17 16 15 14 12 11 9 9 8 8 7 6 6 6 5 5 3 2 1 1 1 1 2 3 4 5 4 4 4 5 9 13 9 18 9 11 7 7 7
26 20 19 18 20 18 17 15 15 12 11 11 10 10 9 8 7 7 7 6 5 4 3 2 2 3 4 5 6 6 6 6 5 6 10 13 9 10 11 10 7 7 8
30 28 21 20 20 19 17 16 19 16 13 11 11 12 11 10 9 8 8 8 7 7 6 4 5 4 6 6 9 10 10 8 8 8 9 14 8 9 11 10 7 7 14
30 30 24 22 20 19 18 17 21 16 16 13 11 11 11 12 12 11 10 10 10 9 8 7 5 9 11 5 11 14 17 16 10 7 7 11 10 11 14 11 8 11 17
23 21 18 17 19 19 18 18 20 20 19 18 18 17 16 15 14 13 12 11 11 11 10 9 7 6 9 8 9 12 17 20 14 8 9 8 12 14 14 14 10 12 21
15 13 11 15 17 18 19 20 23 23 22 21 18 19 19 16 15 14 13 13 12 14 13 11 9 7 9 10 12 10 17 18 15 16 15 7 12 17 13 14 11 11 16
7 6 5 3 6 9 13 19 22 25 27 27 23 20 19 17 16 16 15 15 14 15 15 14 11 9 9 11 11 13 15 18 17 18 15 7 12 20 15 15 13 12 15
3 3 5 7 10 12 15 18 22 26 32 32 28 25 21 19 19 18 17 16 17 16 16 15 13 11 10 11 11 12 13 16 16 17 18 12 12 20 20 16 15 13 10
Wind_Direction
115 109 105 94 81 74 74 73 73 72 69 70 71 74 75 75 76 75 75 72 69 65 64 63 56 47 36 30 29 34 36 34 39 42 44 45 49 46 45 45 48 48 54
118 113 105 94 84 78 79 77 78 78 77 78 78 80 79 79 80 79 76 71 67 64 62 60 51 51 46 36 32 31 28 26 31 32 37 37 33 40 41 42 47 52 57
110 109 103 95 85 78 78 78 81 84 84 85 85 85 86 85 83 82 78 74 71 69 66 63 58 57 54 50 43 38 34 36 28 22 20 14 24 37 46 49 51 54 58
111 105 99 94 84 77 77 81 86 90 91 92 93 93 92 88 86 84 81 78 77 75 68 64 62 60 59 59 56 54 52 42 33 28 19 19 24 41 51 55 56 59 61
102 99 95 95 87 80 80 84 90 95 96 99 101 101 98 95 90 88 84 77 77 70 66 61 58 57 57 55 58 64 62 47 31 13 7 19 22 44 57 60 58 55 55
101 92 94 95 87 83 82 88 92 98 103 104 105 105 104 102 98 95 91 82 78 72 68 67 65 61 57 57 52 57 67 40 30 14 18 26 30 43 52 51 53 61 63
103 90 96 96 88 85 86 91 96 102 105 108 108 108 108 109 106 104 98 95 88 80 74 69 66 65 58 52 54 60 62 42 24 0 5 2 25 63 49 50 57 63 61
117 104 92 94 89 87 91 95 100 102 106 109 109 110 112 114 114 109 106 103 96 91 84 76 70 62 60 59 58 60 46 34 11 3 351 351 17 42 53 54 65 55 50
119 113 102 89 86 90 96 101 104 104 105 109 110 112 114 115 115 114 113 108 105 99 92 87 77 65 56 61 64 44 38 21 19 22 14 355 2 6 23 56 39 46 40
129 125 123 108 90 89 95 106 107 107 108 109 110 113 115 117 116 119 119 116 114 109 101 91 77 66 53 62 66 39 33 21 28 26 21 346 316 317 5 57 59 31 28
205 157 160 150 122 105 98 106 109 110 110 111 110 112 112 110 112 119 122 125 122 114 107 100 83 65 57 61 58 20 30 26 28 16 35 83 20 31 91 83 39 16 11
217 203 185 178 173 142 114 111 107 106 108 106 107 109 104 113 109 112 122 129 130 123 114 109 90 77 66 50 15 358 1 21 38 35 15 72 97 108 116 80 352 339 350
215 231 222 209 209 185 190 156 127 103 97 101 115 112 111 111 107 112 115 122 127 128 116 108 83 71 85 59 17 357 347 355 22 41 66 112 123 116 132 210 273 275 293
206 212 225 216 220 214 228 204 186 171 138 112 119 121 116 122 118 119 131 130 130 126 126 126 112 100 92 70 24 7 4 353 37 2 104 139 237 264 178 236 234 241 253
215 220 214 212 213 214 217 221 212 209 191 175 162 152 140 137 139 130 132 134 138 130 128 131 140 138 134 36 358 334 342 336 356 339 130 203 248 258 197 217 234 238 250
232 223 207 208 210 212 215 220 221 219 217 212 205 205 180 173 175 155 143 139 142 143 135 135 154 153 154 140 161 312 295 278 254 248 267 265 260 243 239 210 222 230 247
239 228 220 210 213 213 219 227 232 230 231 224 215 209 200 205 202 204 174 156 154 149 138 114 137 158 157 145 206 301 306 240 222 257 283 288 284 282 274 226 232 183 236
245 244 241 235 220 215 221 223 233 242 238 234 224 218 212 215 218 225 218 203 180 163 151 144 185 187 186 209 275 307 313 263 229 267 290 288 293 290 256 250 220 189 239
247 247 239 234 230 221 224 229 233 243 239 249 241 237 236 237 230 238 242 233 224 233 248 287 344 243 234 282 300 307 305 287 251 270 281 286 289 270 251 236 224 195 201
263 257 245 237 233 226 235 240 254 253 255 260 252 254 248 248 244 244 249 245 238 241 257 272 295 317 303 300 310 304 305 297 286 268 278 285 281 257 246 241 230 210 222
262 264 255 238 231 235 242 238 253 252 263 263 262 260 251 258 253 254 257 252 243 233 247 248 303 293 313 313 320 317 310 296 287 271 278 278 256 227 237 237 229 203 245
261 260 254 247 242 233 239 245 258 256 265 267 268 271 255 255 258 257 259 258 245 246 250 244 261 312 316 302 314 322 316 314 291 262 257 271 248 232 243 240 222 223 246
259 256 249 245 242 243 245 249 262 269 280 275 275 279 274 265 260 252 258 261 257 247 250 241 242 273 299 303 296 318 318 311 316 293 245 245 242 221 241 248 219 229 248
255 262 254 257 254 256 257 259 264 267 270 276 275 274 277 267 262 258 254 261 264 256 252 249 250 260 295 296 304 283 313 318 313 308 288 253 239 239 231 236 226 204 244
234 249 274 293 303 293 290 281 275 275 278 284 282 277 275 269 264 258 255 262 263 261 253 250 250 253 271 294 293 306 295 300 306 305 296 260 260 239 240 237 231 185 244
263 267 285 291 295 302 300 301 297 292 285 282 281 279 276 271 269 267 261 260 263 254 251 251 250 252 268 287 288 288 290 292 287 288 293 273 221 237 246 246 244 234 214